FW7070 Weather Reports


time (UTC)temp
C
wind
direction
speed
KPH
gust
KPH
rain 1hr
cm
rain 24hr
cm
rain mn
cm
humidity
%
barometer
mb
20260503051503 4 244 4.8 8.0 0.00 0.00 0.00 85 1034.9
20260503051001 5 264 14.5 17.7 0.00 0.00 0.00 85 1035.3
20260503050456 4 257 8.0 11.3 0.00 0.00 0.00 85 1035.1
20260503045955 5 272 4.8 11.3 0.00 0.00 0.00 84 1035.4
20260503045452 5 271 6.4 14.5 0.00 0.00 0.00 84 1035.2
20260503044949 4 285 4.8 14.5 0.00 0.00 0.00 85 1035.3
20260503044445 4 285 4.8 16.1 0.00 0.00 0.00 85 1035.2
20260503043943 4 246 6.4 8.0 0.00 0.00 0.00 85 1035.6
20260503043439 4 297 4.8 9.7 0.00 0.00 0.00 85 1035.4
20260503042935 5 236 16.1 16.1 0.00 0.00 0.00 84 1035.5
20260503042432 4 234 3.2 11.3 0.00 0.00 0.00 84 1035.3
20260503041929 4 267 6.4 9.7 0.00 0.00 0.00 84 1035.5
20260503041425 4 303 0.0 12.9 0.00 0.00 0.00 84 1035.5
20260503040923 5 269 6.4 11.3 0.00 0.00 0.00 83 1035.5
20260503040420 5 266 6.4 12.9 0.00 0.00 0.00 83 1035.6
20260503035918 5 259 4.8 12.9 0.00 0.00 0.00 84 1035.6
20260503035414 5 214 8.0 11.3 0.00 0.00 0.00 84 1035.4
20260503034912 5 228 8.0 12.9 0.00 0.00 0.00 84 1035.4
20260503034409 5 242 4.8 8.0 0.00 0.00 0.00 84 1035.7
20260503033906 5 269 3.2 9.7 0.00 0.00 0.00 83 1035.6
20260503033404 5 259 6.4 11.3 0.00 0.00 0.00 83 1035.7
20260503032901 5 285 4.8 8.0 0.00 0.00 0.00 82 1035.7
20260503032400 5 304 4.8 12.9 0.00 0.00 0.00 82 1035.4
20260503031857 5 255 6.4 11.3 0.00 0.00 0.00 81 1035.7
20260503031355 5 254 4.8 11.3 0.00 0.00 0.00 81 1035.8
20260503030851 5 255 9.7 14.5 0.00 0.00 0.00 81 1035.5
20260503030347 5 236 4.8 11.3 0.00 0.00 0.00 81 1035.7
20260503025844 5 274 3.2 11.3 0.00 0.00 0.00 81 1036.0
20260503025341 5 274 4.8 11.3 0.00 0.00 0.00 81 1035.8
20260503024838 5 244 8.0 12.9 0.00 0.00 0.00 81 1035.9
20260503024335 5 254 6.4 9.7 0.00 0.00 0.00 81 1035.8
20260503023832 5 269 3.2 11.3 0.00 0.00 0.00 80 1035.8
20260503023329 5 255 8.0 14.5 0.00 0.00 0.00 81 1036.0
20260503022826 5 279 0.0 9.7 0.00 0.00 0.00 82 1036.1
20260503022325 5 249 6.4 6.4 0.00 0.00 0.00 81 1036.1
20260503021822 5 263 6.4 12.9 0.00 0.00 0.00 81 1036.0
20260503021319 5 226 4.8 8.0 0.00 0.00 0.00 81 1036.1
20260503020816 5 339 1.6 14.5 0.00 0.00 0.00 80 1036.1
20260503020314 5 263 8.0 16.1 0.00 0.00 0.00 79 1036.2
20260503015810 5 261 6.4 12.9 0.00 0.00 0.00 80 1036.2
20260503015307 5 251 6.4 11.3 0.00 0.00 0.00 81 1036.1
20260503014803 5 289 11.3 17.7 0.00 0.00 0.00 82 1036.1
20260503014301 5 293 3.2 6.4 0.00 0.00 0.00 82 1036.1
20260503013758 5 231 0.0 14.5 0.00 0.00 0.00 81 1036.2
20260503013255 5 285 4.8 12.9 0.00 0.00 0.00 81 1036.3
20260503012752 5 278 4.8 9.7 0.00 0.00 0.00 81 1036.2
20260503012250 5 230 8.0 11.3 0.00 0.00 0.00 80 1036.1
20260503011746 5 310 4.8 17.7 0.00 0.00 0.00 80 1036.1
20260503011243 5 259 6.4 11.3 0.00 0.00 0.00 80 1036.1
20260503010739 5 280 6.4 9.7 0.00 0.00 0.00 80 1036.1
20260503010236 5 257 4.8 14.5 0.00 0.00 0.00 80 1036.1
20260503005734 5 266 6.4 11.3 0.00 0.00 0.00 80 1036.0
20260503005231 5 223 3.2 9.7 0.00 0.00 0.00 79 1036.2
20260503004727 5 277 11.3 16.1 0.00 0.00 0.00 79 1035.8
20260503004226 5 259 8.0 11.3 0.00 0.00 0.00 79 1036.0
20260503003722 5 262 6.4 16.1 0.00 0.00 0.00 79 1035.8
20260503003219 5 260 6.4 17.7 0.00 0.00 0.00 78 1036.0
20260503002716 5 262 4.8 14.5 0.00 0.00 0.00 79 1035.9
20260503002213 5 268 6.4 12.9 0.00 0.00 0.00 79 1036.0
20260503001709 5 272 9.7 12.9 0.00 0.00 0.00 78 1036.1
20260503001205 5 283 4.8 11.3 0.00 0.00 0.00 79 1035.9
20260503000703 5 257 8.0 19.3 0.00 0.00 0.00 79 1036.0
20260503000201 5 285 8.0 16.1 0.00 0.00 0.00 78 1035.9
20260502235657 5 249 11.3 16.1 0.00 0.00 0.00 78 1035.8
20260502235155 5 274 6.4 16.1 0.00 0.00 0.00 78 1035.9
20260502234651 5 266 6.4 14.5 0.00 0.00 0.00 78 1035.8
20260502234149 5 271 6.4 11.3 0.00 0.00 0.00 77 1035.8
20260502233644 5 256 6.4 11.3 0.00 0.00 0.00 79 1035.8
20260502233141 5 261 8.0 12.9 0.00 0.00 0.00 78 1035.9
20260502232637 5 304 4.8 19.3 0.00 0.00 0.00 79 1035.9
20260502232135 5 291 0.0 14.5 0.00 0.00 0.00 78 1035.8
20260502231631 5 298 14.5 20.9 0.00 0.00 0.00 78 1035.7
20260502231129 5 292 6.4 16.1 0.00 0.00 0.00 78 1035.9
20260502230627 5 300 4.8 12.9 0.00 0.00 0.00 77 1035.8
20260502230126 5 265 6.4 12.9 0.00 0.00 0.00 77 1035.9
20260502225620 5 295 6.4 16.1 0.00 0.00 0.00 77 1036.0
20260502225118 5 291 11.3 27.4 0.00 0.00 0.00 76 1035.7
20260502224614 5 252 11.3 16.1 0.00 0.00 0.00 76 1035.8
20260502224111 5 278 6.4 9.7 0.00 0.00 0.00 77 1035.7
20260502223610 5 275 8.0 19.3 0.00 0.00 0.00 76 1036.1
20260502223108 5 307 4.8 17.7 0.00 0.00 0.00 76 1036.0
20260502222604 5 281 8.0 17.7 0.00 0.00 0.00 76 1035.8
20260502222100 5 308 4.8 17.7 0.00 0.00 0.00 76 1035.8
20260502221556 5 283 8.0 22.5 0.00 0.00 0.00 75 1035.9
20260502221054 5 281 14.5 25.7 0.00 0.00 0.00 75 1036.1
20260502220549 5 266 6.4 12.9 0.00 0.00 0.00 75 1036.0
20260502220046 5 255 8.0 16.1 0.00 0.00 0.00 74 1035.8
20260502215543 5 272 9.7 27.4 0.00 0.00 0.00 73 1035.6
20260502215040 5 257 16.1 20.9 0.00 0.00 0.00 72 1035.7
20260502214537 6 313 14.5 24.1 0.00 0.00 0.00 70 1035.9
20260502214035 6 257 9.7 19.3 0.00 0.00 0.00 70 1035.7
20260502213531 5 290 9.7 20.9 0.00 0.00 0.00 70 1035.7
20260502213029 5 317 9.7 22.5 0.00 0.00 0.00 70 1035.8
20260502212528 6 279 16.1 24.1 0.00 0.00 0.00 67 1035.6
20260502212025 6 310 11.3 19.3 0.00 0.00 0.00 67 1035.5
20260502211520 7 236 12.9 32.2 0.00 0.00 0.00 67 1035.7
20260502211018 6 297 12.9 25.7 0.00 0.00 0.00 68 1035.7
20260502210515 6 264 8.0 16.1 0.00 0.00 0.00 68 1035.4
20260502210013 6 347 6.4 24.1 0.00 0.00 0.00 68 1035.7
20260502205509 6 282 8.0 25.7 0.00 0.00 0.00 67 1035.7
20260502205006 6 240 20.9 25.7 0.00 0.00 0.00 68 1035.6
20260502204502 6 267 6.4 20.9 0.00 0.00 0.00 67 1035.5
20260502204000 6 268 25.7 25.7 0.00 0.00 0.00 65 1035.6
20260502203457 7 258 11.3 19.3 0.00 0.00 0.00 64 1035.7
20260502202953 7 292 6.4 16.1 0.00 0.00 0.00 65 1035.5
20260502202450 6 328 4.8 24.1 0.00 0.00 0.00 63 1035.5
20260502201948 6 261 11.3 20.9 0.00 0.00 0.00 61 1035.6
20260502201444 7 288 11.3 27.4 0.00 0.00 0.00 64 1035.7
20260502200941 6 269 8.0 29.0 0.00 0.00 0.00 65 1035.6
20260502200436 6 277 8.0 27.4 0.00 0.00 0.00 66 1035.6
20260502195934 6 316 6.4 20.9 0.00 0.00 0.00 66 1035.7
20260502195431 6 299 9.7 16.1 0.00 0.00 0.00 66 1035.7
20260502194928 6 297 8.0 27.4 0.00 0.00 0.00 64 1035.8
20260502194425 7 257 8.0 22.5 0.00 0.00 0.00 63 1035.9
20260502193921 7 262 14.5 17.7 0.00 0.00 0.00 61 1036.0
20260502193418 7 286 8.0 17.7 0.00 0.00 0.00 62 1036.0
20260502192913 7 276 11.3 25.7 0.00 0.00 0.00 61 1036.2
20260502192410 6 259 9.7 33.8 0.00 0.00 0.00 61 1036.1
20260502191907 6 252 14.5 20.9 0.00 0.00 0.00 56 1036.2
20260502191405 7 278 14.5 19.3 0.00 0.00 0.00 56 1036.2
20260502190903 7 289 8.0 24.1 0.00 0.00 0.00 58 1036.2
20260502190359 7 323 12.9 19.3 0.00 0.00 0.00 56 1036.2
20260502185856 6 258 11.3 24.1 0.00 0.00 0.00 58 1036.1
20260502185351 7 265 17.7 25.7 0.00 0.00 0.00 55 1036.2
20260502184849 7 255 8.0 32.2 0.00 0.00 0.00 59 1035.9
20260502184344 8 334 19.3 19.3 0.00 0.00 0.00 60 1036.2
20260502183841 6 322 6.4 16.1 0.00 0.00 0.00 58 1036.0
20260502183337 6 261 12.9 19.3 0.00 0.00 0.00 57 1036.2
20260502182832 7 304 3.2 12.9 0.00 0.00 0.00 55 1036.0
20260502182327 6 273 6.4 19.3 0.00 0.00 0.00 56 1036.3
20260502181824 7 292 14.5 17.7 0.00 0.00 0.00 57 1036.3
20260502181324 7 298 3.2 12.9 0.00 0.00 0.00 54 1036.4
20260502180821 6 335 8.0 12.9 0.00 0.00 0.00 56 1036.3
20260502180318 7 304 12.9 17.7 0.00 0.00 0.00 59 1035.8
20260502170237 6 250 8.0 19.3 0.00 0.00 0.00 61 1036.0
20260502164225 6 307 12.9 25.7 0.00 0.00 0.00 64 1036.4
20260502163720 6 273 9.7 17.7 0.00 0.00 0.00 66 1036.3
20260502163217 6 258 9.7 19.3 0.00 0.00 0.00 63 1036.6
20260502162714 6 329 4.8 17.7 0.00 0.00 0.00 69 1036.6
20260502162211 6 275 8.0 19.3 0.00 0.00 0.00 66 1036.3
20260502161708 6 316 9.7 14.5 0.00 0.00 0.00 66 1036.4
20260502161204 5 275 8.0 16.1 0.00 0.00 0.00 66 1036.6
20260502160703 6 10 11.3 11.3 0.00 0.00 0.00 66 1036.4
20260502160202 5 290 4.8 19.3 0.00 0.00 0.00 74 1036.7
20260502152120 5 348 4.8 9.7 0.00 0.00 0.00 70 1036.8
20260502151617 6 273 4.8 14.5 0.00 0.00 0.00 70 1036.3
20260502151115 5 312 9.7 16.1 0.00 0.00 0.00 68 1036.3
20260502150612 5 353 8.0 12.9 0.00 0.00 0.00 65 1036.4
20260502150108 5 286 4.8 9.7 0.00 0.00 0.00 71 1036.4
20260502130457 4 260 3.2 8.0 0.00 0.00 0.00 75 1036.8
20260502123440 3 29 3.2 6.4 0.00 0.00 0.00 76 1036.7
20260502122937 3 329 3.2 8.0 0.00 0.00 0.00 75 1036.7
20260502122433 3 23 3.2 4.8 0.00 0.00 0.00 76 1036.7
20260502121931 3 268 4.8 6.4 0.00 0.00 0.00 76 1036.6
20260502121428 3 315 1.6 6.4 0.00 0.00 0.00 76 1036.7
20260502120926 3 330 3.2 4.8 0.00 0.00 0.00 76 1036.8
20260502120422 3 310 0.0 4.8 0.00 0.00 0.00 77 1036.7
20260502115919 3 40 0.0 4.8 0.00 0.00 0.00 77 1036.4
20260502115416 3 349 1.6 4.8 0.00 0.00 0.00 78 1036.7
20260502114912 3 279 3.2 6.4 0.00 0.00 0.00 77 1036.6
20260502114409 3 278 4.8 6.4 0.00 0.00 0.00 78 1036.6
20260502113906 3 290 6.4 6.4 0.00 0.00 0.00 79 1036.6
20260502113404 3 126 0.0 4.8 0.00 0.00 0.00 78 1036.6
20260502112902 3 335 0.0 4.8 0.00 0.00 0.00 79 1036.3
20260502112359 3 253 3.2 4.8 0.00 0.00 0.00 79 1036.6
20260502111856 3 231 3.2 4.8 0.00 0.00 0.00 80 1036.4
20260502111354 3 135 0.0 1.6 0.00 0.00 0.00 83 1036.3
20260502110851 3 119 0.0 3.2 0.00 0.00 0.00 85 1036.4
20260502110349 2 43 3.2 3.2 0.00 0.00 0.00 85 1036.3
20260502105846 2 107 1.6 4.8 0.00 0.00 0.00 86 1036.3
20260502105343 2 259 3.2 3.2 0.00 0.00 0.00 87 1036.2
20260502104841 2 102 3.2 3.2 0.00 0.00 0.00 88 1036.2
20260502104338 2 60 0.0 3.2 0.00 0.00 0.00 88 1036.1
20260502103835 2 189 1.6 6.4 0.00 0.00 0.00 88 1036.3
20260502103332 2 171 0.0 4.8 0.00 0.00 0.00 86 1036.3
20260502102830 3 198 4.8 4.8 0.00 0.00 0.00 81 1036.0
20260502102326 3 237 3.2 4.8 0.00 0.00 0.00 80 1036.0
20260502101824 3 44 0.0 3.2 0.00 0.00 0.00 82 1036.0
20260502101322 2 330 0.0 3.2 0.00 0.00 0.00 83 1035.7
20260502100820 2 149 0.0 4.8 0.00 0.00 0.00 83 1036.0
20260502100319 2 287 0.0 3.2 0.00 0.00 0.00 83 1035.9
20260502091252 2 103 0.0 3.2 0.00 0.00 0.00 86 1035.6
20260502090750 2 135 0.0 3.2 0.00 0.00 0.00 85 1035.5
20260502090246 2 126 0.0 3.2 0.00 0.00 0.00 85 1035.6
20260502071147 3 122 0.0 3.2 0.00 0.00 0.00 81 1034.9
20260502070645 3 160 0.0 9.7 0.00 0.00 0.00 81 1035.1
20260502070143 3 225 3.2 6.4 0.00 0.00 0.00 82 1034.9
20260502065641 3 225 3.2 4.8 0.00 0.00 0.00 82 1034.9
20260502065138 3 202 0.0 4.8 0.00 0.00 0.00 81 1034.9
20260502064637 3 181 3.2 6.4 0.00 0.00 0.00 81 1034.9
20260502064134 3 194 1.6 11.3 0.00 0.00 0.00 81 1035.2
20260502063631 3 192 4.8 8.0 0.00 0.00 0.00 81 1035.1
20260502063129 3 350 4.8 6.4 0.00 0.00 0.00 80 1035.0
20260502062626 4 197 3.2 3.2 0.00 0.00 0.00 79 1035.0
20260502062123 3 212 0.0 4.8 0.00 0.00 0.00 79 1035.1
20260502061622 3 77 1.6 4.8 0.00 0.00 0.00 79 1035.1
20260502061119 3 89 0.0 4.8 0.00 0.00 0.00 79 1035.2
20260502060619 3 179 1.6 3.2 0.00 0.00 0.00 80 1035.2
20260502060116 3 75 0.0 3.2 0.00 0.00 0.00 80 1035.2
20260502055613 3 39 4.8 9.7 0.00 0.00 0.00 80 1035.4
20260502055112 3 283 0.0 11.3 0.00 0.00 0.00 80 1035.4
20260502054610 3 156 1.6 6.4 0.00 0.00 0.00 82 1035.4
20260502054107 3 68 0.0 6.4 0.00 0.00 0.00 81 1035.2
20260502053604 3 41 4.8 6.4 0.00 0.00 0.00 81 1035.7
20260502053101 3 16 0.0 4.8 0.00 0.00 0.00 82 1035.6
20260502052600 3 260 4.8 8.0 0.00 0.00 0.00 83 1035.5
20260502052058 3 124 0.0 4.8 0.00 0.00 0.00 84 1035.5
20260502051555 3 246 0.0 4.8 0.00 0.00 0.00 84 1035.3